Location: Saint-Restitut
(44.3351°N, 4.7915°E)
Time: 13:12:02
(UTC+00:00)

Cosmos 1850 Rocket - Pass Details

Date: 03 February 2023
Orbit: 753 x 784 km, 74.0° (Epoch: 19 March)

Event Time Altitude Azimuth Distance (km) Brightness Sun altitude
Rises 18:21:56 0° 185° (S) 3,203 7.4 -16.2°
Reaches altitude 10° 18:24:21 10° 180° (S) 2,278 6.5 -16.6°
Maximum altitude 18:29:20 52° 105° (ESE) 933 4.1 -17.5°
Enters shadow 18:32:49 20° 36° (NE) 1,722 5.4 -18.1°
